Terug naar catalogus

NIMBUS 2 DEB

ActiefSSO
NORAD 40648·DEBRIS·🇺🇸 United States

Gelanceerd May 15, 1966 vanaf Vandenberg Space Force Base

Loading…

Volgende Passages (komende 24 uur)

TLE

VersSource: Space-Track

Epoch: Sep 14, 2026, 08:45 UTC

1 40648U 66040BM  26257.36522761  .00001923  00000-0  30690-2 0  9997
2 40648 100.2032  90.4821 0039041 272.3931  87.2732 13.50269591555083

Volg NIMBUS 2 DEB in realtime met AllMySat

Download on the App Store